www.pogodaiklimat.ru

Погода и климат >> Архив погоды >> Россия >> Краснодарский край >> Кущевская


ПОГОДА в Кущевской

  • Прогноз погоды в Кущевской
  • Монитор погоды в Кущевской
  • Климат города

АРХИВ ПОГОДЫ в Кущевской

Время (UTC), дата Ветер
(напр.,м/с)
 
Видим.   Явления Облачность Т
(С)
Тd
(С)
f
(%)
Тe
(С)
Тes
(С)
Комфортность P
(гПа)
Po
(гПа)
Тmin
(С)
Tmax
(С)
R
(мм)
R24
(мм)
S
(см)
21 12.11 СВ 3 4000 м слабый снег 10/0 600 м
[As op]
-4.6 -5.8 91 -10 -10 1034.1 1031.3
00 13.11 СВ 3
{11}
4000 м слабый снег 10/0 600 м
[As op]
-5.0 -6.1 92 -11 -11 1033.8 1030.9
03 13.11 СВ 3 4000 м слабый снег 10/0 600 м
[As op]
-5.3 -6.3 93 -11 -11 1033.4 1030.5 -5.3 12 17
06 13.11 СВ 3 500 м сильный снег 10/0 300 м
[As op]
-4.6 -5.7 92 -10 -10 1033.5 1030.6
09 13.11 СВ 3
{10}
500 м сильный снег 10/0 600 м
[As op]
-1.6 -2.9 91 -7 -6 1032.6 1029.7
12 13.11 СВ 4-10
{11}
н/о н/о -1.9 -3.7 87 -8 -8 1032.4 1029.5
15 13.11 СВ 3
{10}
4000 м дымка 10/10 1000 м
[Sc]
-1.7 -3.2 89 -7 -7 1032.9 1030.1 -0.8 7
18 13.11 СВ 4 4000 м слабый переохл. дождь (гололёд) {снег} [диам. гололёда 1 мм] 10/0 600 м
[As op]
-0.7 -2.0 91 -6 -6 1032.8 1030.0
21 13.11 СВ 3 10 км {дождь} [диам. гололёда 1 мм] 10/10 600 м
[Sc]
-0.4 -3.1 82 -5 -5 1032.0 1029.2
00 14.11 СВ 4 10 км дождь [диам. гололёда 1 мм] 10/10 600 м
[Sc]
-0.8 -3.9 79 -6 -6 1031.3 1028.5
03 14.11 СВ 4 10 км 10/10 1000 м
[Sc]
-1.8 -4.8 80 -8 -8 1031.0 1028.1 -1.8 5 24
06 14.11 В 4 10 км 9/9 1000 м
[Sc]
-2.3 -5.3 80 -8 -8 1030.8 1027.9 -2.6
09 14.11 СВ 3 10 км 10/10 1000 м
[Sc]
-0.8 -4.1 78 -5 -5 1029.3 1026.4
12 14.11 СВ 3 10 км 10/10 1000 м
[Sc]
-0.7 -4.0 78 -5 -5 1028.5 1025.7
15 14.11 СВ 3 10 км 10/10 600 м
[Sc]
-0.7 -3.2 83 -5 -5 1027.6 1024.8 -0.0
18 14.11 В 3 10 км 10/10
[Sc]
+0.2 -2.8 80 -4 -4 1026.6 1023.8
21 14.11 10 км н/о 0.0 -4.6 71 -4 -4 1024.9 1022.1
00 15.11 СВ 3 10 км 9/9 600 м
[Sc]
-1.4 -5.6 73 -6 -6 1024.5 1021.7
03 15.11 СВ 4 10 км 10/10 600 м
[Sc]
-2.3 -5.7 77 -8 -8 1023.9 1021.1 -2.3 10
06 15.11 В 3
{10}
10 км 10/8 600 м
[Sc diur, vesp Ci]
-2.6 -6.0 77 -8 -7 1024.8 1022.0 -2.6
09 15.11 СВ 3
{10}
10 км 10/10 600 м
[Sc]
-0.8 -4.9 74 -5 -5 1024.4 1021.6
12 15.11 СВ 3
{10}
10 км 10/10 600 м
[Sc]
-1.6 -5.7 74 -6 -6 1024.8 1022.0
15 15.11 СВ 4-10
{11}
4000 м слабый снег 10/0 600 м
[As op]
-1.5 -3.1 89 -7 -7 1025.8 1023.0 -0.6 0.6
18 15.11 СВ 4-10
{11}
4000 м слабый снег 10/0 600 м
[As op]
-0.6 -1.5 94 -6 -6 1025.6 1022.8
21 15.11 В 4
{11}
4000 м слабый снег 10/0 600 м
[As op]
0.0 -1.0 93 -6 -6 1025.8 1023.0
00 16.11 СВ 4
{12}
4000 м дымка {снег} 10/10 600 м
[Sc]
-0.9 -3.0 86 -7 -7 1026.1 1023.3
03 16.11 СВ 4
{11}
10 км 10/10 600 м
[Sc]
-1.3 -3.8 83 -7 -7 1026.6 1023.8 -1.5 6 11
06 16.11 СВ 4
{10}
10 км 10/10 1000 м
[Sc]
-0.9 -4.7 75 -6 -6 1027.7 1024.9
09 16.11 В 4
{11}
10 км 10/10 1000 м
[Sc]
-0.4 -5.2 70 -6 -6 1028.4 1025.6
12 16.11 СВ 3
{12}
1000 м снег 10/0 600 м
[As op]
-1.6 -3.3 88 -7 -6 1028.6 1025.8
15 16.11 СВ 4-10
{11}
4000 м слабый снег 10/0 600 м
[As op]
-1.6 -3.2 89 -7 -7 1029.5 1026.7 -0.1 2
18 16.11 СВ 4
{12}
4000 м в посл. час снег 10/0 600 м
[As op]
-2.0 -3.7 88 -8 -8 1029.3 1026.5
21 16.11 СВ 3
{10}
10 км 10/10 600 м
[Sc]
-0.2 -5.7 66 -5 -5 1029.1 1026.3
00 17.11 СВ 3
{10}
10 км 10/10 600 м
[Sc]
-0.7 -3.8 80 -5 -5 1028.9 1026.1
03 17.11 СВ 3 10 км {снег, дождь} 10/10 600 м
[Sc]
-0.3 -5.6 67 -5 -5 1029.6 1026.8 -2.1 1 12
06 17.11 СВ 3 10 км {снег, дождь} 10/10 600 м
[Sc]
-0.0 -5.8 65 -4 -4 1030.0 1027.2
09 17.11 СВ 2 4000 м слабый снег 10/0 600 м
[As op]
-0.2 -2.6 84 -4 -3 1030.7 1027.8
12 17.11 СВ 3 4000 м слабый снег 10/0 600 м
[As op]
-0.6 -2.5 87 -5 -5 1030.8 1028.0
15 17.11 СВ 2 10 км {снег} 10/10 600 м
[Sc]
-0.7 -3.9 79 -4 -4 1030.8 1027.9 +0.7 2
18 17.11 СВ 2 10 км {снег} 10/10 600 м
[Sc]
-0.7 -4.9 73 -4 -4 1030.0 1027.2
21 17.11 штиль 0 10 км 10/10 600 м
[Sc]
-2.1 -5.5 77 -3 -3 1029.3 1026.4
00 18.11 С 1 4000 м дымка 10/10 600 м
[Sc]
-4.7 -6.3 89 -7 -7 1028.6 1025.8
03 18.11 штиль 0 10 км 10/10 1000 м
[Sc]
-2.5 -5.4 80 -4 -4 1028.0 1025.1 -5.2 13
06 18.11 штиль 0 10 км 10/10 1000 м
[Sc]
-0.9 -4.7 75 -2 -2 1027.8 1025.0
09 18.11 В 1 10 км 9/9 1000 м
[Sc]
+1.3 -5.0 63 -0 0 1027.1 1024.3
12 18.11 В 1 10 км 10/10 1000 м
[Sc]
+1.4 -4.7 64 0 0 1026.4 1023.6
15 18.11 штиль 0 10 км 10/10 1000 м
[Sc]
+0.1 -3.7 76 -1 -1 1026.6 1023.8 +2.2
18 18.11 штиль 0 10 км 10/10 600 м
[Sc]
-0.0 -3.3 78 -1 -1 1026.7 1023.9
21 18.11 СВ 1 10 км 10/10 600 м
[Sc]
-0.2 -3.3 80 -2 -2 1026.6 1023.8
00 19.11 В 1 10 км 10/10 600 м
[Sc]
-0.2 -2.6 84 -2 -2 1026.5 1023.7
03 19.11 В 1 10 км 10/10 600 м
[Sc]
-0.0 -2.4 84 -2 -2 1026.0 1023.2 -0.2 10
06 19.11 СВ 2 10 км 10/10 1000 м
[Sc]
+0.6 -2.1 82 -3 -3 1026.2 1023.4
09 19.11 СВ 3 10 км 9/9 1000 м
[Sc]
+2.8 -1.2 75 -1 -1 1025.8 1023.0
12 19.11 СВ 3 10 км 6/0
[Cc]
+3.0 -1.2 74 -1 0 1024.5 1021.8
15 19.11 В 1 10 км ясно +0.3 -2.1 84 -2 -2 1024.0 1021.2 +3.9

 

Местоположение метеостанции Кущевская (Краснодарский край, Россия): широта 46.53 долгота 39.62 высота над уровнем моря 22 м.

В архиве по умолчанию представлена погода в Кущевской за последнюю неделю. Архивные данные за месяц целиком и за предыдущие месяцы, начиная с января 2011 года, Вы можете получить, выбрав интересующий диапазон дат из раскрывающегося списка и нажав кнопку "Ввод!".


*Определитесь, кто Вы:
робот инопланетянин человек

Внимание! Время в таблицах - всемирное. Для получения местного времени необходимо прибавить поправку, которая в Кущевской равна 3 ч.

Смотрите также архив погоды в соседних городах и на ближайших метеорологических станциях:

Погода в Староминская (Краснодарский край, Россия) (46 км)
Погода в Сосыке (Краснодарский край, Россия) (47 км)
Погода в Зерноград (Ростовская область, Россия) (64 км)
Погода в Каневской (Краснодарский край, Россия) (72 км)
Погода в Маргаритово (Ростовская область, Россия) (72 км)
Погода в Тихорецке (Краснодарский край, Россия) (84 км)
Погода в Ростове-на-Дону (Ростовская область, Россия) (84 км)
Погода в Таганроге (Ростовская область, Россия) (92 км)
Погода в Ейске (Краснодарский край, Россия) (107 км)
Погода в Белой Глине (Краснодарский край, Россия) (109 км)

Пояснения к столбцам:

Ветер - указаны скорость ветра в м/с - средняя за 10 мин, порывы в срок и между сроками (в фигурных скобках) и направление, откуда дует ветер: С - северный, СВ - северо-восточный, В - восточный, ЮВ - юго-восточный, Ю - южный, ЮЗ - юго-западный, З - западный, СЗ - северо-западный.
Видимость - горизонтальная дальность видимости в метрах или километрах. При видимости от 1 до 10 км при отсутствии осадков обычно наблюдается дымка, при ухудшении видимости до 1 км и менее - туман. В сухую погоду видимость может ухудшаться дымом, пылью или мглою.
Явления - указаны атмосферные явления, наблюдавшиеся в срок или в последний час перед сроком; фигурными скобками обозначены явления, наблюдавшиеся между сроками (за 1-3 часа до срока); квадратными скобками обозначены град или гололедные отложения с указанием их диаметра в мм.
Облачность - указаны через наклонную черту общая и нижняя облачность в баллах и высота нижней границы облаков в метрах; квадратными скобками обозначены формы облаков: Ci - перистые, Cs - перисто-слоистые, Cc - перисто-кучевые, Ac - высококучевые, As - высокослоистые, Sc - слоисто-кучевые, Ns - слоисто-дождевые, Cu - кучевые, Cb - кучево-дождевые. Подробнее классификацию облаков см. в Атласе облаков (PDF).
T - Температура воздуха - температура, измеренная на высоте 2 м над землей.
Td - Температура точки росы - температура, при понижении до которой содержащийся в воздухе водяной пар достигнет насыщения.
f - Относительная влажность воздуха - влажноcть воздуха, измеренная на высоте 2 м над землей.
Te - Эффективная температура - температура, которую ощущает одетый по сезону человек в тени. Характеристика душности погоды. При расчете учитывается влияние влажности воздуха и скорости ветра на теплоощущения человека.
Tes - Эффективная температура на солнце - температура, которую ощущает человек, с поправкой на солнечный нагрев. Характеристика знойности погоды. Зависит от высоты солнца над горизонтом, облачности и скорости ветра. Ночью, в пасмурную погоду, а также при ветре 12 м/с и более поправка равна нулю.
P - Атмосферное давление - приведенное к уровню моря атмосферное давление.
Po - Атмосферное давление - измеренное на уровне метеостанции атмосферное давление.
Tmin - Минимальная температура - минимум температуры воздуха на высоте 2 м над землей.
Tmax - Максимальная температура - максимум температуры воздуха на высоте 2 м над землей.
R - Количество осадков - Количество выпавших осадков за период времени, мм. При наведении курсора мыши на число - период времени, за который выпало указанное количество осадков.
R24 - Количество осадков - Количество выпавших осадков за 24 часа, мм.
S - Снежный покров - Высота снежного покрова, см. При наведении курсора мыши на число - состояние снежного покрова и степень покрытия местности в баллах.